Dewpoint
58 58 58 58 59 59 60 62 62 62 62 63 63 63 63 63 63 63 63 63 63 63 62 62 62 62 62 62 64 62 60 56 54 53 51 53 60 62 61 61 60 60 59 52 52 49 46 44 48 48 52 50 35 29 32 37 40 36 29 30 26 29 26 29 22 22 26 21 20 23 23 25 22 24 29 42 46 47 48 49 50 52 52 52 52 55 59 60
57 58 59 59 59 59 60 61 62 62 62 62 63 63 64 64 63 63 63 63 63 62 62 62 62 62 62 62 62 60 56 55 53 53 51 59 63 61 62 63 63 60 56 50 52 50 48 44 47 52 51 51 44 33 32 34 38 34 30 29 29 29 28 29 24 23 19 19 19 23 24 23 23 25 30 34 39 46 46 47 49 51 51 53 55 58 59 60
56 57 58 59 59 59 60 61 61 62 62 62 62 63 63 63 63 63 63 62 62 62 62 62 62 62 62 61 61 59 55 54 52 50 53 64 63 63 62 62 62 60 50 47 49 51 49 45 45 51 52 52 37 29 30 27 35 35 31 27 30 32 30 30 24 23 21 21 22 23 24 22 22 28 29 32 37 43 45 44 47 48 49 52 55 57 58 60
56 57 57 58 58 58 59 60 61 62 62 61 62 63 63 63 62 63 63 62 62 62 62 62 62 62 61 61 60 54 53 49 46 51 59 64 64 63 63 62 60 54 48 46 46 47 49 48 44 50 52 51 49 35 24 25 28 31 29 29 30 30 27 26 28 23 23 22 22 23 23 22 22 28 30 32 40 40 43 42 45 47 51 53 56 57 58 59
54 55 56 56 57 58 59 60 60 61 62 62 62 63 62 62 62 62 62 62 62 62 62 62 62 61 61 60 58 50 45 41 42 52 61 65 64 64 63 61 57 49 48 49 50 50 48 47 47 48 52 48 48 49 24 27 31 31 28 30 29 27 26 25 24 24 22 24 23 23 22 21 22 25 30 37 30 30 37 39 44 46 53 55 56 57 58 59
54 54 55 56 57 58 58 60 60 61 62 62 62 62 63 62 62 62 62 62 62 62 62 62 61 61 60 59 52 49 41 36 52 49 65 65 64 64 62 59 58 51 51 51 51 51 49 51 50 50 48 50 46 47 48 26 28 22 25 26 27 25 23 21 22 23 23 23 23 22 23 22 23 22 30 35 28 27 27 33 39 49 54 56 57 57 58 59
56 56 56 56 56 57 58 59 60 61 61 62 62 62 62 62 62 62 62 62 62 62 62 62 61 61 60 57 52 46 41 45 50 54 64 64 64 64 62 61 58 53 52 51 52 50 49 48 48 46 47 48 46 47 40 31 26 24 22 25 23 26 23 23 21 24 23 23 22 23 23 22 21 21 25 34 33 24 26 33 39 53 55 57 57 57 58 59
56 55 55 57 57 56 57 58 60 61 61 62 61 62 62 62 62 62 62 62 62 62 62 61 61 60 59 54 48 46 42 42 49 56 63 63 61 61 58 53 53 53 52 50 50 50 51 47 46 49 50 48 43 45 39 30 24 23 23 23 23 22 22 22 21 19 23 23 21 22 21 21 21 20 29 29 32 29 38 51 53 55 56 57 57 57 57 58
56 54 54 55 57 56 56 58 59 61 61 62 62 62 62 62 62 62 62 62 62 62 62 61 61 60 58 52 47 46 44 52 53 60 62 60 57 55 53 52 54 51 51 51 51 51 51 51 45 47 47 47 46 42 36 31 25 29 32 25 21 21 22 21 20 20 22 22 21 21 21 20 18 22 22 23 27 30 48 51 54 55 55 56 56 57 57 57
55 55 55 54 56 57 57 57 58 59 61 61 62 62 62 62 62 62 62 62 62 62 62 61 61 60 56 49 47 42 50 56 60 61 60 58 56 53 52 53 54 51 50 52 51 50 51 52 45 46 47 47 47 48 38 29 31 32 30 26 22 20 21 22 19 19 21 22 20 20 19 19 20 19 17 18 22 48 51 51 52 54 55 56 56 56 57 57
55 55 55 54 53 56 57 57 57 58 60 61 61 62 62 61 62 61 62 62 61 62 61 61 60 58 54 50 43 40 53 58 60 60 58 56 56 54 54 54 53 51 51 52 51 52 51 47 48 49 51 49 47 46 45 38 28 29 25 22 21 20 20 21 20 19 20 19 19 20 18 20 19 19 17 17 39 48 50 52 53 52 54 55 55 56 56 56
54 54 54 55 54 55 56 57 57 58 59 60 61 61 61 61 61 61 61 62 62 61 61 61 60 56 53 50 44 44 50 54 61 60 57 55 55 56 56 56 55 52 51 51 52 52 48 48 51 50 47 50 47 45 46 42 36 26 22 22 21 19 18 20 19 19 20 19 19 18 17 17 18 16 18 17 41 48 51 53 53 52 53 54 55 55 56 56
55 55 55 56 55 56 56 57 58 58 59 60 60 61 61 61 61 61 60 61 62 61 61 61 59 56 52 48 48 49 50 56 60 58 57 56 55 54 54 55 55 53 52 51 51 51 50 52 52 48 48 48 46 45 47 46 33 24 23 20 18 18 18 19 21 20 19 19 20 19 16 17 16 17 18 22 47 47 50 52 54 53 52 53 54 55 55 55
55 55 55 56 57 56 56 57 58 57 58 60 60 60 61 61 61 61 61 60 62 61 61 61 58 54 50 46 50 51 55 60 58 57 56 54 52 52 52 53 53 53 54 52 53 53 55 56 52 49 52 50 44 49 48 45 28 23 22 20 20 18 18 20 20 20 18 21 20 15 17 15 15 16 18 34 46 47 47 50 53 52 51 52 53 54 55 55
54 55 55 56 57 57 57 57 59 58 58 60 60 60 60 61 61 61 61 61 61 61 61 60 56 52 49 49 49 55 60 60 57 56 56 53 50 50 50 51 52 52 52 52 52 54 54 52 50 49 48 45 48 47 44 42 38 24 21 21 24 19 20 22 26 18 17 18 17 15 18 14 14 13 15 25 47 46 44 48 51 51 51 52 53 54 54 55
54 54 54 55 56 56 57 58 59 59 59 60 60 59 59 60 60 61 61 61 61 61 60 56 55 51 48 46 49 59 59 56 56 56 56 53 52 49 49 50 50 51 51 51 51 53 53 55 52 50 45 47 46 43 42 41 41 28 21 23 21 20 20 18 19 22 22 18 20 15 15 12 10 12 15 15 46 46 44 46 49 50 51 52 53 54 54 54
52 53 54 54 55 55 55 57 58 59 59 59 60 60 59 59 60 61 61 61 61 60 58 54 55 51 45 51 57 54 54 53 55 53 53 52 50 49 48 48 48 48 49 50 51 50 51 48 47 48 46 46 45 42 38 37 37 34 24 18 26 18 18 17 18 22 24 18 16 18 14 11 10 10 12 21 41 44 43 44 48 50 51 52 52 53 53 54
52 52 54 55 54 53 54 56 57 58 58 59 59 59 59 60 60 61 61 61 60 59 57 57 55 51 48 49 47 51 55 54 54 53 50 51 49 49 48 47 47 47 48 48 50 49 51 46 46 45 43 42 41 41 37 33 36 36 27 18 18 17 17 17 18 17 18 18 16 16 15 14 14 14 14 18 27 42 43 42 45 48 50 51 51 52 52 53
52 52 53 53 53 53 54 56 56 58 58 58 59 60 60 60 60 60 58 57 54 49 48 48 49 42 38 45 51 53 54 54 52 51 49 49 49 48 48 47 47 46 44 46 47 46 47 44 46 43 40 39 38 39 39 32 31 24 22 21 23 20 18 16 17 19 19 16 15 15 15 15 15 15 15 17 23 34 39 38 34 41 45 47 49 50 51 52
51 52 53 53 53 53 53 54 55 57 57 57 57 57 56 52 52 51 56 55 51 49 52 51 49 45 45 47 51 53 53 52 50 50 49 49 48 47 46 46 46 48 46 44 45 46 44 42 40 40 42 40 39 38 38 33 29 29 25 24 20 19 18 19 19 20 21 17 15 15 15 15 15 15 15 15 20 24 27 30 33 30 37 42 44 46 48 49
50 51 52 52 52 52 53 53 55 57 58 57 56 53 47 49 46 44 47 50 51 50 49 51 48 46 46 50 52 51 49 49 50 48 48 49 48 47 44 46 45 44 45 45 44 48 44 42 41 42 42 42 39 37 35 32 29 27 25 23 20 24 18 18 17 22 23 17 17 16 15 16 15 15 15 16 19 19 22 26 28 27 25 32 38 41 42 44
50 50 51 52 53 52 53 54 55 57 58 57 54 51 49 52 52 53 51 44 47 49 50 47 47 48 51 52 52 51 50 47 47 47 48 47 48 46 44 46 45 42 43 43 43 42 41 40 42 41 41 39 35 34 33 32 30 28 24 23 22 21 22 19 20 20 20 18 16 18 15 15 15 15 15 15 17 18 20 23 25 25 24 22 26 33 37 37
50 50 51 51 51 52 52 54 55 56 56 53 51 52 50 52 54 55 52 48 44 47 46 46 47 48 50 52 51 49 47 46 44 46 46 47 46 43 44 44 44 41 42 42 40 39 37 40 43 38 37 36 33 31 28 27 25 31 24 21 20 24 21 19 18 22 20 17 16 17 15 15 16 16 16 15 15 16 20 20 22 23 23 22 21 22 28 32
50 50 51 51 51 52 52 53 54 55 54 53 53 52 53 54 54 55 51 43 40 43 45 46 47 49 48 48 51 48 46 45 46 44 46 46 43 44 43 43 41 40 40 41 41 39 39 42 39 37 37 36 32 31 30 30 31 28 26 23 20 21 20 17 16 19 20 19 20 16 18 15 15 15 15 15 17 16 17 21 20 22 25 24 26 25 23 22
50 51 51 51 51 52 52 53 52 52 53 53 53 55 53 55 55 53 48 43 42 41 47 46 46 49 47 46 46 48 45 46 45 45 45 43 40 43 41 42 40 40 40 41 42 40 36 37 36 36 36 36 33 30 31 31 29 27 27 22 19 18 18 19 20 19 18 19 22 19 15 15 18 17 15 15 16 16 16 16 16 17 19 22 21 22 23 27
49 50 51 51 52 51 52 49 50 52 52 50 52 54 54 54 54 51 49 39 33 39 43 39 48 45 48 45 43 47 47 42 42 45 44 39 44 42 39 38 39 39 39 40 41 41 41 37 36 35 34 35 34 34 32 29 28 25 24 23 19 17 20 23 22 22 19 18 20 17 15 16 19 16 14 14 15 15 15 18 17 16 16 19 21 22 21 22
49 49 50 51 51 52 48 44 50 52 48 48 53 55 54 53 51 50 44 33 31 38 38 44 43 45 44 45 44 46 39 38 46 45 41 41 37 36 39 37 35 37 40 39 38 37 37 36 37 37 35 34 33 33 32 27 25 23 26 23 19 16 20 23 24 23 22 26 24 18 19 15 15 15 17 15 12 12 12 13 14 16 17 17 17 19 21 22
49 50 50 51 51 51 47 51 50 48 47 52 55 54 54 52 51 50 40 26 24 42 38 40 43 46 45 43 46 43 41 45 41 42 39 38 37 34 37 35 36 36 37 38 34 38 35 35 37 36 35 34 33 34 32 26 25 24 27 27 24 16 22 26 25 22 25 18 19 20 22 13 14 15 16 13 10 9 9 10 12 13 15 16 18 19 20 21
49 50 50 51 51 51 50 50 50 47 50 54 54 55 54 52 50 44 33 26 36 38 46 39 46 43 42 43 41 38 44 46 41 42 41 35 37 34 34 34 36 37 39 37 36 32 34 36 37 37 35 34 34 33 30 27 25 28 32 31 30 30 29 27 23 24 20 15 17 17 16 15 14 20 16 14 9 8 7 7 8 10 12 14 16 18 20 21
49 50 50 51 50 51 50 50 49 51 54 55 54 53 52 50 44 34 27 22 38 31 41 40 41 39 40 40 38 42 42 37 41 38 34 32 32 32 33 37 36 36 36 36 35 34 34 39 38 36 35 34 35 34 33 28 25 32 29 28 30 29 26 25 25 22 16 15 17 19 17 14 13 17 13 14 15 10 9 9 8 8 13 12 14 16 21 22
49 50 50 51 49 48 49 46 47 53 53 54 53 52 50 46 36 29 25 30 37 36 40 39 38 41 39 37 37 41 37 38 37 34 31 31 29 32 34 33 35 34 33 34 33 34 33 34 34 34 34 33 36 32 35 33 34 30 26 27 24 25 26 24 24 20 16 15 17 16 17 13 14 15 16 14 11 10 11 11 11 10 8 11 15 16 18 21
49 49 50 49 50 49 46 44 48 54 54 54 52 49 46 31 33 28 25 40 30 33 34 36 39 39 38 37 38 37 36 36 35 32 29 29 29 31 32 32 33 30 31 32 33 33 31 33 35 33 36 31 33 33 33 36 33 31 32 28 23 22 20 18 16 15 16 15 13 16 16 12 12 14 12 12 10 10 10 10 10 10 8 11 14 18 22 27
49 49 50 49 50 49 48 49 53 53 53 53 50 47 39 31 23 32 31 34 29 37 35 39 37 38 36 36 37 36 37 34 34 32 30 30 28 31 32 32 33 31 28 32 31 30 31 34 33 32 32 32 31 30 30 31 34 31 26 24 23 19 16 16 15 10 12 16 14 14 17 12 15 12 15 14 14 13 12 11 13 11 12 14 16 19 24 31
49 49 48 49 50 49 49 51 53 53 52 51 47 42 36 29 27 35 32 32 33 36 38 37 37 37 35 34 35 36 35 35 32 30 29 28 28 28 28 30 31 30 31 32 30 29 26 26 29 31 30 32 30 31 31 36 33 29 29 27 24 21 15 13 10 14 15 18 13 16 11 14 12 14 17 15 15 17 17 16 17 18 17 18 24 31 32 34
49 48 48 49 50 50 50 51 53 52 52 49 43 37 29 29 32 30 32 32 35 37 36 38 34 33 33 34 35 35 35 33 32 30 29 28 26 28 27 28 30 31 30 30 29 27 28 27 28 31 30 31 30 31 31 31 31 31 30 30 24 23 24 15 16 13 9 7 7 9 15 18 16 16 16 15 16 16 18 22 28 29 31 34 35 34 33 34
47 47 49 47 49 50 51 52 52 52 50 45 39 32 30 32 29 34 32 36 36 34 35 36 34 32 32 32 33 33 33 34 32 29 29 28 28 27 28 28 29 31 30 28 29 27 27 27 29 29 30 30 31 29 30 30 27 28 25 24 25 26 23 20 17 15 12 14 10 10 13 16 16 12 11 16 14 13 14 18 24 28 31 34 34 34 35 37
46 47 44 46 48 50 51 51 52 50 48 43 37 31 34 32 36 35 37 35 36 37 35 31 32 30 31 30 31 33 33 34 32 30 27 29 27 27 27 26 30 30 31 30 28 28 28 27 28 29 27 28 31 30 30 29 31 26 24 27 26 27 28 18 17 14 11 12 13 10 10 11 8 15 17 9 11 10 10 12 14 22 31 32 32 33 35 37
46 45 45 45 47 51 52 51 52 49 45 41 33 34 35 33 37 35 37 37 37 36 34 32 32 32 31 31 30 32 33 32 31 30 28 28 27 29 26 25 28 30 30 30 29 27 29 23 25 27 28 31 32 30 29 31 31 26 29 29 24 21 20 19 17 10 7 6 8 9 13 11 10 12 10 6 8 7 7 9 11 14 22 29 30 33 36 35
46 44 41 45 49 51 51 51 50 46 42 35 34 34 34 34 38 35 38 38 37 34 33 33 31 31 32 31 31 32 33 31 31 30 28 28 26 29 27 26 27 29 30 29 27 27 28 23 24 27 28 30 29 28 26 27 30 30 27 23 25 21 21 20 19 16 14 9 3 13 8 10 15 13 9 6 6 9 7 7 10 12 15 25 30 33 35 36
43 40 40 49 51 51 51 50 47 44 40 32 33 34 37 34 35 38 40 38 35 35 32 32 32 30 31 31 32 31 33 32 31 30 29 29 27 28 27 27 26 29 29 28 26 30 27 27 19 26 29 28 25 27 26 26 25 23 24 23 19 20 25 22 18 17 15 8 5 4 5 15 15 15 10 7 6 6 6 7 14 17 19 25 30 33 35 36
45 41 42 51 50 51 51 48 41 38 37 37 37 35 35 33 35 36 38 38 38 31 32 32 31 29 30 30 30 32 31 32 31 30 29 28 27 26 28 26 27 28 29 27 26 29 25 25 24 26 25 25 25 27 29 28 27 26 25 24 22 20 18 17 18 12 10 8 7 1 10 15 18 16 11 8 7 6 16 14 15 16 17 23 29 33 35 37
42 35 40 50 51 51 47 38 39 42 39 34 33 35 33 36 35 35 37 38 35 32 32 31 31 31 31 30 31 31 31 31 31 30 28 29 29 26 28 26 26 28 27 26 25 27 27 27 26 22 25 26 27 30 31 30 29 27 25 25 23 21 20 18 16 19 11 10 12 12 1 12 14 14 14 11 10 14 15 20 18 19 19 20 25 32 34 35
42 38 49 50 51 49 44 38 41 39 37 38 38 37 37 34 34 35 35 37 33 31 33 31 30 30 31 30 30 30 31 30 31 30 30 27 29 25 28 25 26 27 27 25 27 25 33 23 25 24 25 28 29 31 30 30 30 29 28 27 23 20 20 19 19 19 18 12 10 6 6 15 20 22 21 18 17 20 23 23 22 20 20 21 24 30 33 34
42 42 43 50 50 48 42 33 32 36 34 36 36 35 36 34 34 34 34 35 31 31 31 30 30 30 30 31 30 30 31 27 30 27 26 25 28 27 28 25 26 27 26 25 25 31 23 23 26 20 21 25 27 27 28 28 29 27 25 27 27 26 25 23 20 15 11 18 17 12 11 8 20 21 21 20 18 16 15 16 22 21 20 23 25 29 32 33
43 45 45 46 48 46 39 39 37 33 34 34 34 32 32 32 34 34 33 33 31 31 31 29 30 31 30 31 30 31 31 29 29 29 25 25 26 28 27 27 25 26 27 29 35 32 28 26 26 23 21 21 21 22 23 25 26 28 27 25 26 25 23 18 17 12 13 16 15 12 12 15 16 16 8 8 12 13 16 18 19 21 20 21 26 31 33 33
41 32 40 42 45 45 42 41 39 36 34 34 33 33 33 31 32 36 37 31 30 30 29 30 31 31 31 31 29 29 29 27 30 28 26 25 25 25 28 24 25 27 31 33 33 29 26 28 27 26 24 24 25 26 29 29 27 26 26 25 24 26 24 27 26 17 15 16 13 15 16 16 8 6 6 9 11 14 14 17 18 22 25 26 27 32 34 34
41 37 36 33 41 42 38 37 38 37 34 36 32 33 32 32 32 33 35 32 31 29 29 30 30 30 30 30 29 29 30 25 27 28 26 26 26 26 25 27 25 29 35 33 31 28 28 25 26 27 26 25 26 27 29 28 26 27 27 26 26 25 25 24 22 20 22 15 13 17 20 14 13 15 13 12 12 14 18 19 17 16 20 26 29 32 36 33
34 37 39 40 36 32 36 33 39 37 37 37 34 34 32 31 31 31 33 33 31 30 27 27 30 31 31 30 29 28 28 26 27 27 26 26 26 27 26 27 27 32 31 29 31 25 24 24 26 26 26 25 26 27 28 28 27 27 27 27 26 26 25 25 24 24 21 18 17 19 20 15 15 14 13 12 11 12 13 14 17 18 26 31 31 32 33 35
38 37 38 41 36 38 38 36 37 37 36 36 33 33 32 31 31 32 32 30 30 27 28 26 29 30 31 31 30 28 28 24 24 27 26 26 26 25 24 25 27 31 27 28 28 26 23 23 25 25 25 25 24 27 28 27 27 27 28 28 27 27 26 25 25 26 25 22 23 21 21 19 18 15 14 14 20 20 20 23 26 27 28 31 31 32 33 34
36 37 36 39 38 39 37 37 36 36 34 35 31 31 31 31 31 31 30 30 27 27 29 27 28 30 31 31 30 28 28 27 27 26 27 27 27 25 24 24 23 27 25 26 27 26 23 21 27 24 20 22 24 25 26 27 26 25 27 28 28 28 27 27 26 26 26 25 25 24 22 22 22 20 18 20 21 24 20 18 16 24 30 32 33 33 33 34
36 38 38 37 36 38 38 36 35 35 33 32 31 30 30 31 31 31 30 33 28 27 28 27 29 30 31 31 30 29 30 29 28 29 29 28 25 27 25 24 25 26 27 27 25 25 24 19 23 22 20 14 22 23 23 24 24 24 25 27 27 27 26 26 26 26 25 24 24 22 22 21 21 22 24 22 22 21 20 19 19 21 29 32 32 31 32 33
38 38 39 37 34 38 36 36 35 34 31 32 31 30 29 30 31 31 29 31 32 30 29 30 30 29 30 30 29 30 31 29 30 30 29 28 28 28 30 28 26 26 26 26 27 25 24 21 19 19 20 13 20 23 23 22 20 20 22 24 27 27 27 27 27 27 26 26 24 23 22 21 20 24 20 20 20 21 21 21 21 21 24 29 30 30 30 32